Showing default

FLOCK 4Q 28, 58280

Orbit data source: Space-Track

FLOCK 4Q 28, 58280 is a payload satellite owned by Planet (US) in SSO that was launched on Sat, 11 Nov 2023 UTC via an FALCON 9 launch vehicle from the Air Force Western Test Range (AFWTR). Payload-class satellites include a variety of spacecraft equipped with specific instruments for various scientific and technological missions. These include communications satellites like Starlink; space stations such as the ISS; scientific satellites like the Hubble; Earth observation satellites from companies like Planet Labs, Umbra, and HawkEye 360; GPS; miniature CubeSats for education and research; and military/defense satellites.

Loading next visibility...
Identifier
58280, 2023-174AA
Orbit
SSO
Country
Flag of USUS
Related business
Manufacturer
Planet
Mission
Operational Commercial Imaging
Bus & Motor
CUBESAT 3U, Unknown motor
Mass
5.7 kg wet, 5.7 kg dry
Launch date (UTC)
2023-11-11 (2 years ago)
Launch vehicle
FALCON 9
Launch site
Air Force Western Test Range (AFWTR)
Object type
Payload
Rocket body
Debris
Shape & HBR
Box + 2 Pan, 1.0 m
Radar Cross Section
0.072 m², Medium (>0.1 m² and < 1m²)

Expand to show TLE details & history
Last TLE update: 6 hours ago

TLE from 6 hours ago
0 FLOCK 4Q 28
1 58280U 23174AA  26036.69676727  .00042618  00000-0  84431-3 0  9991
2 58280  97.3957 124.3571 0005746 259.6924 100.3678 15.46925484125367
Epoch: 2026-02-05T16:43Z
TLE epoch observation values (Epoch: 2026-02-05T16:43:20.692Z)
Latitude
-0°
Longitude
97.6756°
Altitude
429.559 km
Speed
7.653 km/s
True Right ascension
08h 17m 25s
True Declination
0° 00' 00"
Sunlit
Object was in full shadow at epoch
Visualization orbit readout
Latitude
Unknown
Longitude
Unknown
Altitude
Unknown
Speed
Unknown
Apparent Right ascension
Unknown
Apparent Declination
Unknown
Sunlit
N/A
Visualization observer readout
Local Sidereal Time
00:56:23
Azimuth
Unknown
Elevation
Unknown
Doppler factor
Unknown
Orbital elements
Apogee altitude
426.564 km
Perigee altitude
418.748 km
Semi-major axis
6,800.793 km
Eccentricity
0.00057
Inclination
97.3957°
RAAN
124.3571°
Arg. of periapsis
259.6924°
True anomaly
100.43256°
Mean anomaly
100.3678°
Eccentric anomaly
100.40018°
Mean motion
3.86994 °/min
Orbital period
93.02 mins
BSTAR
0.00084431
Loading maneuver chart data...
Computing Atmospheric mass density...
Loading historical data...
Loading historical data...
Loading historical data...
Loading historical data...
Loading historical data...
Loading historical data...
Loading historical data...

Documentation

Showing up to 5 results
|